Location: Unspecified
(42.7170°S, 0.0000°E)
Time: 21:49:59
(UTC+00:00)

N. Korean satellite - Pass Details

Date: 27 May 2019
Orbit: 455 x 510 km, 97.2° (Epoch: 24 June)

Event Time Altitude Azimuth Distance (km) Brightness Sun altitude
Rises 04:06:06 0° 59° (ENE) 2,491 10.9 -34.4°
Reaches altitude 10° 04:09:06 10° 89° (E) 1,635 10.0 -33.8°
Enters shadow 04:09:55 12° 102° (ESE) 1,521 9.8 -33.7°
